Terminal Aerodrome Forecast
Issued by NWS Tampa Bay Area, FL

Home | Current Version | Previous Version | Text Only | Print | Product List | Glossary On
Versions: 1 2 3 4 5 6 7 8 9 10 11 12 13 14 15 16 17 18 19 20 21 22 23 24
000
FTUS42 KTBW 192338
TAFTPA
TAF
KTPA 192338Z 2000/2024 05008KT P6SM BKN050
     FM200200 06004KT P6SM FEW050 SCT080
     FM201500 05006KT P6SM FEW035 SCT080
     FM201800 34007KT P6SM SCT050 SCT250=

USA.gov is the U.S. government's official web portal to all federal, state and local government web resources and services.